Location: *
(48.8489°N, 2.3218°E)
Time: 22:28:15
(UTC+00:00)

SL-16 R/B - Pass Details

Date: 23 August 2019
Orbit: 842 x 846 km, 71.0° (Epoch: 17 September)

Event Time Altitude Azimuth Distance (km) Brightness Sun altitude
Rises 23:34:20 0° 323° (NW) 3,417 6.2 -29.7°
Reaches altitude 10° 23:37:10 10° 310° (NW) 2,477 5.1 -29.8°
Enters shadow 23:40:47 24° 273° (W) 1,688 3.8 -29.8°
